• In Portugal
  • List of Countries
  • For 7 days
  • Water Temperature
  • Satellite Maps
  • Weather Map
  • Weather Widgets
  • user-avatar
    Login

    Hourly Weather Maun

    Today, 20 October, Friday

    Time Temperature Precipitation Wind Pressure Humidity
    00:00 +31°C° 0 mm 2 mps 679 mmHg 13%
    01:00 +30°C° 0 mm 2 mps 679 mmHg 13%
    02:00 +29°C° 0 mm 2 mps 679 mmHg 13%
    03:00 +28°C° 0 mm 2 mps 679 mmHg 13%
    04:00 +28°C° 0 mm 3 mps 679 mmHg 13%
    05:00 +27°C° 0 mm 3 mps 679 mmHg 13%
    06:00 +28°C° 0 mm 3 mps 680 mmHg 12%
    07:00 +30°C° 0 mm 3 mps 680 mmHg 11%
    08:00 +33°C° 0 mm 4 mps 681 mmHg 10%
    09:00 +35°C° 0 mm 4 mps 681 mmHg 10%
    10:00 +38°C° 0 mm 3 mps 681 mmHg 10%
    11:00 +42°C° 0 mm 3 mps 682 mmHg 11%
    12:00 +42°C° 0 mm 3 mps 681 mmHg 10%
    13:00 +43°C° 0 mm 3 mps 680 mmHg 10%
    14:00 +44°C° 0 mm 3 mps 680 mmHg 10%
    15:00 +43°C° 0 mm 3 mps 680 mmHg 11%
    16:00 +42°C° 0 mm 3 mps 679 mmHg 11%
    17:00 +42°C° 0 mm 3 mps 679 mmHg 12%
    18:00 +38°C° 0.2 mm 4 mps 679 mmHg 16%
    19:00 +36°C° 0.2 mm 4 mps 680 mmHg 21%
    20:00 +34°C° 0.2 mm 5 mps 680 mmHg 26%
    21:00 +33°C° 0.4 mm 4 mps 680 mmHg 29%
    22:00 +31°C° 0.4 mm 3 mps 681 mmHg 32%
    23:00 +30°C° 0.4 mm 2 mps 682 mmHg 35%

    Tomorrow, 21 October, Saturday

    Time Temperature Precipitation Wind Pressure Humidity
    00:00 +29°C° 0.2 mm 2 mps 681 mmHg 36%
    01:00 +29°C° 0.2 mm 2 mps 681 mmHg 37%
    02:00 +29°C° 0.2 mm 3 mps 681 mmHg 38%
    03:00 +29°C° 0.1 mm 3 mps 681 mmHg 37%
    04:00 +29°C° 0.1 mm 4 mps 681 mmHg 37%
    05:00 +29°C° 0.1 mm 4 mps 681 mmHg 37%
    06:00 +30°C° 0 mm 4 mps 682 mmHg 34%
    07:00 +30°C° 0 mm 4 mps 682 mmHg 31%
    08:00 +32°C° 0 mm 4 mps 683 mmHg 29%
    09:00 +35°C° 0 mm 5 mps 683 mmHg 25%
    10:00 +37°C° 0 mm 5 mps 684 mmHg 22%
    11:00 +40°C° 0 mm 5 mps 684 mmHg 19%
    12:00 +41°C° 0 mm 5 mps 683 mmHg 17%
    13:00 +42°C° 0 mm 4 mps 683 mmHg 15%
    14:00 +43°C° 0 mm 4 mps 682 mmHg 13%
    15:00 +42°C° 0 mm 4 mps 682 mmHg 14%
    16:00 +41°C° 0 mm 4 mps 682 mmHg 14%
    17:00 +39°C° 0 mm 3 mps 681 mmHg 15%
    18:00 +38°C° 0 mm 3 mps 681 mmHg 18%
    19:00 +36°C° 0 mm 3 mps 682 mmHg 20%
    20:00 +34°C° 0 mm 3 mps 682 mmHg 23%
    21:00 +34°C° 0 mm 3 mps 682 mmHg 26%
    22:00 +33°C° 0 mm 3 mps 682 mmHg 30%
    23:00 +32°C° 0 mm 4 mps 683 mmHg 33%

    Day after tomorrow, 22 October, Sunday

    Time Temperature Precipitation Wind Pressure Humidity
    00:00 +30°C° 0 mm 4 mps 682 mmHg 36%
    01:00 +30°C° 0 mm 4 mps 682 mmHg 40%
    02:00 +29°C° 0 mm 4 mps 682 mmHg 43%
    03:00 +29°C° 0 mm 4 mps 682 mmHg 44%
    04:00 +28°C° 0 mm 4 mps 682 mmHg 44%
    05:00 +28°C° 0 mm 4 mps 682 mmHg 44%
    06:00 +28°C° 0 mm 4 mps 683 mmHg 43%
    07:00 +29°C° 0 mm 4 mps 684 mmHg 41%
    08:00 +30°C° 0 mm 4 mps 684 mmHg 39%
    09:00 +33°C° 0 mm 4 mps 685 mmHg 35%
    10:00 +35°C° 0 mm 4 mps 685 mmHg 30%
    11:00 +37°C° 0 mm 4 mps 685 mmHg 26%
    12:00 +38°C° 0 mm 3 mps 684 mmHg 23%
    13:00 +39°C° 0 mm 3 mps 684 mmHg 21%
    14:00 +40°C° 0 mm 2 mps 683 mmHg 18%
    15:00 +39°C° 0.1 mm 2 mps 682 mmHg 19%
    16:00 +38°C° 0.1 mm 2 mps 682 mmHg 21%
    17:00 +37°C° 0.1 mm 2 mps 681 mmHg 22%
    18:00 +35°C° 0.1 mm 1 mps 682 mmHg 24%
    19:00 +34°C° 0.1 mm 1 mps 682 mmHg 26%
    20:00 +33°C° 0.1 mm 1 mps 682 mmHg 28%
    21:00 +32°C° 0.1 mm 1 mps 682 mmHg 30%
    22:00 +32°C° 0.1 mm 2 mps 682 mmHg 32%
    23:00 +31°C° 0.1 mm 2 mps 682 mmHg 33%

    23 October, Monday

    Time Temperature Precipitation Wind Pressure Humidity
    00:00 +30°C° 0.1 mm 2 mps 682 mmHg 36%
    01:00 +29°C° 0.1 mm 1 mps 681 mmHg 38%
    02:00 +28°C° 0.1 mm 1 mps 681 mmHg 40%
    03:00 +28°C° 0 mm 2 mps 681 mmHg 41%
    04:00 +27°C° 0 mm 2 mps 681 mmHg 42%
    05:00 +27°C° 0 mm 3 mps 681 mmHg 43%
    06:00 +28°C° 0 mm 3 mps 682 mmHg 39%
    07:00 +29°C° 0 mm 3 mps 683 mmHg 35%
    08:00 +32°C° 0 mm 4 mps 684 mmHg 31%
    09:00 +34°C° 0 mm 3 mps 684 mmHg 28%
    10:00 +36°C° 0 mm 3 mps 684 mmHg 25%
    11:00 +38°C° 0 mm 3 mps 684 mmHg 22%
    12:00 +38°C° 0 mm 3 mps 683 mmHg 21%
    13:00 +38°C° 0 mm 3 mps 682 mmHg 20%
    14:00 +39°C° 0 mm 2 mps 681 mmHg 19%
    15:00 +38°C° 0 mm 2 mps 681 mmHg 19%
    16:00 +38°C° 0 mm 2 mps 681 mmHg 20%
    17:00 +38°C° 0 mm 2 mps 680 mmHg 20%
    18:00 +37°C° 0 mm 2 mps 681 mmHg 22%
    19:00 +35°C° 0 mm 2 mps 681 mmHg 24%
    20:00 +34°C° 0 mm 2 mps 682 mmHg 27%
    21:00 +34°C° 0 mm 2 mps 681 mmHg 28%
    22:00 +32°C° 0 mm 2 mps 681 mmHg 29%
    23:00 +31°C° 0 mm 1 mps 681 mmHg 31%

    24 October, Tuesday

    Time Temperature Precipitation Wind Pressure Humidity
    00:00 +31°C° 0 mm 1 mps 681 mmHg 32%
    01:00 +30°C° 0 mm 1 mps 680 mmHg 34%
    02:00 +29°C° 0 mm 1 mps 680 mmHg 35%
    03:00 +29°C° 0 mm 1 mps 680 mmHg 36%
    04:00 +28°C° 0 mm 1 mps 680 mmHg 36%
    05:00 +28°C° 0 mm 1 mps 680 mmHg 37%
    06:00 +29°C° 0 mm 1 mps 681 mmHg 34%
    07:00 +31°C° 0 mm 2 mps 682 mmHg 31%
    08:00 +34°C° 0 mm 2 mps 682 mmHg 27%
    09:00 +36°C° 0 mm 2 mps 682 mmHg 24%
    10:00 +37°C° 0 mm 2 mps 682 mmHg 20%
    11:00 +39°C° 0 mm 2 mps 682 mmHg 17%
    12:00 +40°C° 0 mm 2 mps 682 mmHg 15%
    13:00 +41°C° 0 mm 2 mps 681 mmHg 14%
    14:00 +42°C° 0 mm 2 mps 680 mmHg 12%
    15:00 +42°C° 0 mm 2 mps 680 mmHg 12%
    16:00 +41°C° 0 mm 2 mps 680 mmHg 12%
    17:00 +41°C° 0 mm 2 mps 679 mmHg 11%
    18:00 +39°C° 0 mm 2 mps 680 mmHg 13%
    19:00 +38°C° 0 mm 2 mps 680 mmHg 14%
    20:00 +37°C° 0 mm 2 mps 680 mmHg 15%
    21:00 +36°C° 0 mm 2 mps 680 mmHg 15%
    22:00 +35°C° 0 mm 3 mps 680 mmHg 16%
    23:00 +35°C° 0 mm 3 mps 680 mmHg 16%

    25 October, Wednesday

    Time Temperature Precipitation Wind Pressure Humidity
    00:00 +34°C° 0 mm 2 mps 680 mmHg 18%
    01:00 +32°C° 0 mm 2 mps 679 mmHg 19%
    02:00 +31°C° 0 mm 2 mps 679 mmHg 20%
    03:00 +30°C° 0 mm 2 mps 679 mmHg 22%
    04:00 +30°C° 0 mm 2 mps 679 mmHg 24%
    05:00 +29°C° 0 mm 2 mps 679 mmHg 25%
    06:00 +31°C° 0 mm 2 mps 680 mmHg 24%
    07:00 +32°C° 0 mm 2 mps 680 mmHg 22%
    08:00 +34°C° 0 mm 2 mps 681 mmHg 21%
    09:00 +36°C° 0 mm 3 mps 681 mmHg 18%
    10:00 +39°C° 0 mm 3 mps 681 mmHg 16%
    11:00 +42°C° 0 mm 3 mps 681 mmHg 14%
    12:00 +42°C° 0 mm 2 mps 680 mmHg 12%
    13:00 +43°C° 0 mm 2 mps 680 mmHg 11%
    14:00 +45°C° 0 mm 1 mps 679 mmHg 10%
    15:00 +43°C° 0 mm 1 mps 679 mmHg 10%
    16:00 +42°C° 0 mm 1 mps 678 mmHg 11%
    17:00 +41°C° 0 mm 1 mps 678 mmHg 11%
    18:00 +40°C° 0 mm 1 mps 678 mmHg 12%
    19:00 +39°C° 0 mm 1 mps 678 mmHg 13%
    20:00 +37°C° 0 mm 1 mps 679 mmHg 14%
    21:00 +36°C° 0 mm 1 mps 678 mmHg 15%
    22:00 +35°C° 0 mm 1 mps 678 mmHg 15%
    23:00 +36°C° 0 mm 2 mps 678 mmHg 16%
    Show more